[[{"header":{"parameterUnit":"m.s-1","parameterCategory":1,"la1":30.2991,"la2":30.254,"lo1":-89.0895,"lo2":-89.0444,"dy":0.0017,"dx":0.0017,"nx":28,"ny":28,"refTime":"2025-04-29T21:00:00:Z","depth":0,"parameterNumber":2,"parameterNumberName":"U-component_of_WINDS"},"data":[0,0,0,0,0,0,0,0,0,0,0,0,0,0,0,0,0,0,0,0,0,0,0,0,0,0,0,0,0,0,0,0,0,0,0,0,0,0,0,0,0,0,0,0,0,0,0,0,0,0,0,0,0,0,0,0,0,0,-3.5524,-3.5525,0,-3.562,-3.5621,-3.5623,-3.5614,-3.5613,-3.5611,-3.561,-3.5707,-3.5711,-3.5715,0,0,0,0,0,0,0,0,0,0,0,0,0,-3.5333,-3.5337,-3.5524,-3.5525,-3.5526,-3.562,-3.5622,-3.5623,-3.5615,-3.5613,-3.5611,-3.5609,-3.5706,-3.5711,-3.5715,0,0,0,0,0,0,0,0,0,0,0,0,0,-3.5421,-3.5338,-3.5524,-3.5534,-3.5536,-3.562,-3.5622,-3.5623,-3.5615,-3.5613,-3.5611,-3.5609,-3.5704,-3.571,-3.5716,-3.5796,0,0,-3.5734,-3.5737,0,0,0,0,0,0,0,0,-3.5416,-3.5428,-3.5531,-3.5533,-3.5535,-3.5603,-3.559,-3.5681,-3.5616,-3.5585,-3.561,-3.5607,-3.5674,-3.5683,-3.5705,-3.5801,-3.5805,-3.5735,-3.5738,-3.5741,-3.5742,0,0,0,0,0,0,0,-3.541,-3.5424,-3.5562,-3.5533,-3.5535,-3.5533,-3.5543,-3.5607,-3.5641,-3.5587,-3.5587,-3.5599,-3.5675,-3.57,-3.5708,-3.5806,-3.5734,-3.574,-3.5743,-3.5746,-3.5974,-3.5976,0,0,0,0,0,0,-3.5402,-3.5419,-3.5559,-3.5565,-3.5469,-3.5539,-3.555,-3.5584,-3.564,-3.5646,-3.56,-3.5598,-3.5691,-3.5701,-3.5711,-3.5809,-3.5741,-3.5746,-3.575,-3.5971,-3.5974,-3.5977,0,0,0,0,0,0,-3.5398,-3.5414,-3.5555,-3.5492,-3.551,-3.5544,-3.5582,-3.5587,-3.5611,-3.565,-3.5656,-3.5619,-3.5689,-3.5703,-3.5775,-3.5812,-3.5749,-3.5754,-3.5968,-3.5972,-3.5976,-3.6005,0,0,0,0,0,0,-3.5392,-3.5413,-3.5444,-3.5493,-3.5513,-3.5618,-3.5584,-3.559,-3.5622,-3.5619,-3.5669,-3.5675,-3.5689,-3.5767,-3.5781,-3.5819,-3.5759,-3.5965,-3.597,-3.5974,-3.6001,-3.6009,-3.6016,0,0,0,0,0,-3.5386,-3.5448,-3.5445,-3.5462,-3.5552,-3.562,-3.5632,-3.5646,-3.5625,-3.5656,-3.5681,-3.5674,-3.5806,-3.5774,-3.5791,-3.5831,-3.5963,-3.5969,-3.5974,-3.5997,-3.6007,-3.6016,0,0,0,0,0,0,-3.5401,-3.5454,-3.5452,-3.5532,-3.5572,-3.5619,-3.5658,-3.5657,-3.5703,-3.5699,-3.5714,-3.5726,-3.5799,-3.5823,-3.5786,-3.5912,-3.5882,-3.5891,-3.5893,-3.5904,-3.5911,-3.5903,-3.5764,0,0,0,0,0,-3.5414,-3.5465,-3.5508,-3.5575,-3.5595,-3.5623,-3.5653,-3.5661,-3.5703,-3.5719,-3.575,-3.579,-3.5841,-3.5874,-3.5923,-3.6005,-3.6016,-3.6041,-3.6048,-3.6055,-3.6062,-3.6107,-3.6119,-3.5996,-3.5995,-3.5995,0,0,-3.544,-3.5476,-3.5507,-3.5579,-3.561,-3.5662,-3.5637,-3.5693,-3.5732,-3.5728,-3.5798,-3.5822,-3.5869,-3.5947,-3.5982,-3.5968,-3.6099,-3.6062,-3.6067,-3.607,-3.6114,-3.6126,-3.6136,-3.5999,-3.5999,-3.5998,0,0,-3.5515,-3.5548,-3.5606,-3.5639,-3.5688,-3.5707,-3.5721,-3.5769,-3.5785,-3.5856,-3.5854,-3.5901,-3.5988,-3.6021,-3.605,-3.614,-3.6135,-3.6156,-3.6195,-3.624,-3.6249,-3.6258,-3.6289,-3.6301,-3.6163,-3.6163,-3.6163,0,-3.5542,-3.562,-3.5637,-3.5694,-3.5725,-3.5725,-3.5785,-3.5816,-3.5878,-3.59,-3.5884,-3.5994,-3.6025,-3.6111,-3.6133,-3.6156,-3.6173,-3.6149,-3.6247,-3.6256,-3.6264,-3.6294,-3.6306,-3.6165,-3.6165,-3.6165,-3.6164,0,-3.5651,-3.5705,-3.5747,-3.5808,-3.5845,-3.5903,-3.5928,-3.5963,-3.5969,-3.599,-3.6063,-3.6101,-3.6157,-3.6179,-3.6184,-3.6266,-3.6256,-3.6243,-3.6213,-3.6277,-3.6306,-3.6318,-3.6168,-3.6167,-3.6167,-3.6166,0,0,-3.5735,-3.5806,-3.5821,-3.5849,-3.5904,-3.5946,-3.6005,-3.6061,-3.6091,-3.6135,-3.6184,-3.6259,-3.6248,-3.628,-3.629,-3.6329,-3.6398,-3.6312,-3.6313,-3.6325,-3.649,-3.6498,-3.6511,-3.6396,-3.6398,-3.64,-3.6485,0,-3.5815,-3.5919,-3.5936,-3.6027,-3.6078,-3.608,-3.6131,-3.617,-3.6192,-3.6238,-3.6262,-3.6315,-3.6297,-3.6316,-3.6355,-3.6381,-3.6431,-3.6375,-3.6441,-3.6443,-3.6428,-3.6526,-3.6534,-3.6613,-3.6497,-3.6499,-3.65,0,-3.5921,-3.5968,-3.6064,-3.6113,-3.6135,-3.6181,-3.6234,-3.6279,-3.6324,-3.6337,-3.6374,-3.638,-3.6441,-3.641,-3.6494,-3.6456,-3.6485,-3.6502,-3.6505,-3.651,-3.6474,-3.6532,-3.6638,-3.665,-3.6518,-3.6517,-3.6515,0,-3.5972,-3.606,-3.6129,-3.6153,-3.6212,-3.6244,-3.627,-3.6313,-3.6346,-3.6394,-3.6415,-3.6469,-3.6498,-3.6539,-3.6559,-3.6535,-3.6642,-3.6613,-3.6654,-3.6654,-3.6675,-3.6673,-3.6785,-3.6696,-3.6696,-3.6696,-3.6695,0,-3.6059,-3.6117,-3.6153,-3.6195,-3.6261,-3.6281,-3.6345,-3.6371,-3.641,-3.6457,-3.6462,-3.6507,-3.6531,-3.6579,-3.6596,-3.6663,-3.6676,-3.6688,-3.6692,-3.6687,-3.6685,-3.6704,-3.6699,-3.6699,-3.6698,-3.6697,-3.6697,0,-3.6126,-3.6152,-3.6227,-3.6278,-3.6292,-3.6338,-3.6382,-3.6423,-3.6445,-3.6505,-3.652,-3.6555,-3.6612,-3.6637,-3.6707,-3.6718,-3.6795,-3.6795,-3.678,-3.678,-3.682,-3.6816,-3.6948,-3.6966,-3.6865,-3.6866,-3.6867,0,-3.6178,-3.6223,-3.6279,-3.6312,-3.6339,-3.6391,-3.6425,-3.6447,-3.6482,-3.6538,-3.6573,-3.663,-3.6677,-3.6768,-3.6799,-3.6853,-3.6854,-3.6897,-3.6862,-3.6856,-3.6853,-3.685,-3.6854,-3.6902,-3.6903,-3.6904,-3.6905,0,-3.6268,-3.628,-3.6329,-3.6383,-3.6424,-3.6468,-3.651,-3.6537,-3.6565,-3.6605,-3.6664,-3.67,-3.6772,-3.6829,-3.6885,-3.6912,-3.6913,-3.6916,-3.6928,-3.6923,-3.6911,-3.6917,-3.6795,-3.6912,-3.6911,-3.6911,-3.691,-3.691,-3.6329,-3.637,-3.6416,-3.647,-3.6505,-3.6545,-3.6587,-3.6615,-3.6664,-3.6725,-3.6735,-3.6798,-3.6843,-3.6919,-3.6948,-3.6997,-3.6987,-3.7005,-3.7009,-3.7013,-3.7015,-3.6905,-3.7008,-3.7008,-3.7007,-3.7007,-3.7007,0,-3.6419,-3.6449,-3.65,-3.6559,-3.6603,-3.6601,-3.6649,-3.6685,-3.674,-3.6783,-3.6829,-3.6897,-3.6952,-3.6989,-3.7046,-3.7078,-3.708,-3.7092,-3.7089,-3.7095,-3.7021,-3.7005,-3.7089,-3.7089,-3.7089,-3.7089,-3.7089,-3.7089,-3.6471,-3.6539,-3.6556,-3.6642,-3.6671,-3.6733,-3.676,-3.6798,-3.6831,-3.6907,-3.6953,-3.6977,-3.7018,-3.7077,-3.7128,-3.7138,-3.7158,-3.717,-3.7179,-3.7109,-3.71,-3.7092,-3.7076,-3.7174,-3.7175,-3.7248,-3.7249,-3.7249]},{"header":{"parameterUnit":"m.s-1","parameterCategory":1,"la1":30.2991,"la2":30.254,"lo1":-89.0895,"lo2":-89.0444,"dy":0.0017,"dx":0.0017,"nx":28,"ny":28,"refTime":"2025-04-29T21:00:00:Z","depth":0,"parameterNumber":3,"parameterNumberName":"V-component_of_WINDS"},"data":[0,0,0,0,0,0,0,0,0,0,0,0,0,0,0,0,0,0,0,0,0,0,0,0,0,0,0,0,0,0,0,0,0,0,0,0,0,0,0,0,0,0,0,0,0,0,0,0,0,0,0,0,0,0,0,0,0,0,4.9882,4.9882,0,4.9923,4.9924,4.9924,4.987,4.9868,4.9866,4.9865,4.9903,4.9905,4.9908,0,0,0,0,0,0,0,0,0,0,0,0,0,4.9752,4.9755,4.9882,4.9882,4.9883,4.9923,4.9924,4.9924,4.9871,4.9868,4.9866,4.9864,4.9902,4.9905,4.9908,0,0,0,0,0,0,0,0,0,0,0,0,0,4.9803,4.9756,4.9882,4.9861,4.986,4.9923,4.9924,4.9925,4.9871,4.9868,4.9865,4.9863,4.9901,4.9905,4.9909,4.9993,0,0,4.9922,4.9924,0,0,0,0,0,0,0,0,4.98,4.9807,4.9864,4.9863,4.9861,4.9889,4.9892,4.9947,4.9872,4.9867,4.9865,4.9861,4.99,4.9904,4.9918,4.9995,4.9997,4.9922,4.9925,4.9927,4.9928,0,0,0,0,0,0,0,4.9796,4.9805,4.9898,4.9864,4.9863,4.9848,4.9852,4.9902,4.9899,4.9867,4.9863,4.9869,4.9899,4.9914,4.9919,4.9997,4.9922,4.9926,4.9928,4.993,5.0146,5.0149,0,0,0,0,0,0,4.9796,4.9803,4.9897,4.9899,4.9823,4.9853,4.9858,4.9883,4.9898,4.9898,4.9871,4.9866,4.9908,4.9914,4.992,5.002,4.9927,4.9931,4.9933,5.0143,5.0147,5.015,0,0,0,0,0,0,4.9793,4.9805,4.9895,4.985,4.986,4.9859,4.9887,4.9885,4.99,4.9902,4.9901,4.9888,4.9906,4.9914,4.9976,5.0021,4.9932,4.9936,5.0139,5.0144,5.0149,5.0221,0,0,0,0,0,0,4.979,4.9804,4.9837,4.9851,4.9863,4.9952,4.989,4.9888,4.9909,4.9902,4.9917,4.9917,4.9905,4.997,4.998,5.0025,4.994,5.0135,5.0142,5.0147,5.0215,5.0228,5.0239,0,0,0,0,0,4.9785,4.9855,4.9839,4.9851,4.9904,4.9954,4.9961,4.9947,4.9912,4.9945,4.9946,4.9916,5.0014,4.9977,4.9988,5.0034,5.0132,5.014,5.0147,5.0209,5.0225,5.0239,0,0,0,0,0,0,4.9843,4.9856,4.9839,4.9915,4.9934,4.9945,4.9986,4.9964,4.9992,4.9985,4.9965,4.9969,5.0036,5.0041,4.9999,5.0117,5.0067,5.0077,5.0111,5.0126,5.0138,5.0135,4.9943,0,0,0,0,0,4.9866,4.9907,4.9915,4.9981,4.9992,4.9988,5.0009,4.9997,5.0015,5.0022,5.0028,5.0046,5.0081,5.0104,5.0136,5.0216,5.0218,5.0253,5.0265,5.0275,5.0284,5.0326,5.0342,5.0174,5.0174,5.0174,0,0,4.991,4.9923,4.9949,4.9993,5.0006,5.0048,4.9994,5.0041,5.0071,5.0029,5.0088,5.0093,5.0112,5.0184,5.0215,5.019,5.0331,5.0285,5.0292,5.0295,5.0336,5.0351,5.0366,5.0179,5.0178,5.0177,0,0,5.0014,5.0028,5.0085,5.01,5.0122,5.0119,5.0133,5.0148,5.015,5.021,5.0179,5.0215,5.0275,5.029,5.0306,5.0417,5.0391,5.0428,5.0491,5.0533,5.0546,5.0558,5.0598,5.0612,5.0437,5.0437,5.0437,0,5.0067,5.013,5.0116,5.0166,5.0186,5.0152,5.0209,5.0224,5.0254,5.0269,5.0241,5.0317,5.0327,5.0402,5.0429,5.0443,5.0457,5.0426,5.0546,5.0557,5.0568,5.0605,5.062,5.0441,5.0441,5.044,5.044,0,5.0194,5.0239,5.0282,5.0315,5.034,5.0392,5.0386,5.0412,5.0399,5.0398,5.046,5.0471,5.0505,5.0522,5.0508,5.0596,5.0579,5.0549,5.0498,5.0589,5.0623,5.0638,5.0447,5.0446,5.0444,5.0443,0,0,5.0334,5.036,5.0376,5.0391,5.0414,5.0447,5.0498,5.0534,5.0557,5.058,5.0622,5.0675,5.0648,5.0665,5.0653,5.069,5.0778,5.0655,5.0655,5.0677,5.0874,5.0897,5.0913,5.0761,5.0764,5.0766,5.0873,0,5.0437,5.0528,5.0518,5.0604,5.0645,5.0614,5.0658,5.0677,5.0678,5.0712,5.0713,5.0751,5.0712,5.0722,5.0758,5.076,5.0817,5.0752,5.0799,5.0801,5.0795,5.0932,5.0955,5.1055,5.0886,5.0888,5.089,0,5.057,5.06,5.0691,5.0709,5.0725,5.0766,5.0798,5.0831,5.0851,5.0849,5.0871,5.0852,5.0903,5.0852,5.0921,5.0878,5.0896,5.09,5.0904,5.0907,5.085,5.0938,5.1087,5.1102,5.0911,5.091,5.0908,0,5.0663,5.0726,5.0788,5.0802,5.0824,5.0854,5.0864,5.0881,5.0903,5.0931,5.0945,5.0978,5.0996,5.1021,5.1011,5.0976,5.1083,5.1031,5.1082,5.1082,5.1105,5.1103,5.1258,5.1118,5.1118,5.1118,5.1118,0,5.078,5.0836,5.0831,5.0869,5.0932,5.0919,5.0981,5.0987,5.1003,5.1041,5.1016,5.1052,5.1038,5.1073,5.1066,5.1125,5.1133,5.1132,5.113,5.1134,5.1134,5.1146,5.1138,5.1122,5.1121,5.112,5.112,0,5.0893,5.0892,5.0958,5.0975,5.098,5.1025,5.1039,5.1074,5.1075,5.1124,5.1134,5.1134,5.1174,5.1168,5.1212,5.1207,5.128,5.1269,5.1274,5.1271,5.1322,5.1317,5.1489,5.1511,5.1357,5.1359,5.136,0,5.0968,5.1011,5.1033,5.1058,5.1071,5.1111,5.1134,5.1123,5.1148,5.1175,5.1208,5.1246,5.1276,5.1342,5.1345,5.1379,5.1368,5.1426,5.1372,5.1376,5.1368,5.1366,5.137,5.1436,5.1438,5.1439,5.144,0,5.11,5.1097,5.1133,5.1168,5.1197,5.1224,5.1249,5.127,5.1262,5.1291,5.1333,5.1357,5.1403,5.1441,5.1473,5.1482,5.146,5.1457,5.1471,5.1476,5.1477,5.1477,5.1302,5.1453,5.1452,5.1451,5.145,5.145,5.1195,5.1233,5.1255,5.1295,5.1313,5.1337,5.1371,5.1377,5.1412,5.145,5.1441,5.1489,5.1508,5.1549,5.1562,5.1598,5.1576,5.1596,5.1601,5.1606,5.1612,5.1472,5.1604,5.1603,5.1603,5.1603,5.1602,0,5.1326,5.1339,5.1377,5.1413,5.1444,5.1423,5.1449,5.1477,5.1519,5.154,5.1571,5.1619,5.1657,5.1663,5.1699,5.1726,5.1717,5.1736,5.1733,5.1736,5.1629,5.1614,5.1743,5.1743,5.1743,5.1743,5.1743,5.1743,5.1398,5.146,5.1461,5.1531,5.1543,5.1591,5.1608,5.1629,5.1646,5.1702,5.1733,5.1738,5.1753,5.179,5.1823,5.1824,5.1838,5.1861,5.1858,5.1757,5.1743,5.173,5.1715,5.1864,5.1864,5.1961,5.1962,5.1963]}]]